Duchifat 3
1 44854U 19089C   25134.45956077  .00037789  00000-0  79467-3 0  9990
2 44854  36.9421 160.9988 0000810 155.4847 204.5947 15.44380568298976
TO-108
1 44881U 19093C   25134.83016727  .00000947  00000-0  11560-3 0  9992
2 44881  97.7927 211.0181 0012764 320.8950  39.1341 14.85548582292250
FloripaSat 1
1 44885U 19093G   25134.76991588  .00005122  00000-0  43632-3 0  9990
2 44885  97.8145 222.3235 0009457 290.0138  70.0065 14.98185347292889
RS-44
1 44909U 19096E   25134.59834752  .00000023  00000-0  51673-4 0  9990
2 44909  82.5219 244.5376 0217259 356.6345   3.3282 12.79740352251369
UPMSat 2
1 46276U 20061E   25134.24823427  .00063480  00000-0  63703-3 0  9994
2 46276  97.2458 207.8119 0001458 162.1788 197.9524 15.65306723261342
SALSAT
1 46495U 20068K   25134.45921236  .00007191  00000-0  31437-3 0  9990
2 46495  97.8595 111.2915 0009558 249.6867 110.3342 15.22378711254554
CubeSX-Sirius-HSE
1 47951U 21022V   25134.85710945  .00365567  00000-0  14121-2 0  9990
2 47951  97.4140  46.9986 0007012  97.7985 262.4082 15.86333618229764
CubeSX-HSE
1 47952U 21022W   25134.80696615  .00351728  00000-0  13358-2 0  9998
2 47952  97.4167  47.2062 0006148  98.2584 261.9384 15.86724106229779
GRBAlpha
1 47959U 21022AD  25134.79558603  .00305672  00000-0  12497-2 0  9997
2 47959  97.4149  47.2739 0006508  96.1481 264.0531 15.85295177228597
TUBIN
1 48900U 21059X   25134.79963826  .00046151  00000-0  60877-3 0  9991
2 48900  97.6741 301.9791 0002339 322.7317  37.3775 15.58272342216021
LEDSAT
1 49069U 21073D   25134.76062977  .00067838  00000-0  91933-3 0  9990
2 49069  97.3900 215.2857 0011891 170.3878 189.7607 15.57376141207414
CUTE
1 49263U 21088D   25134.47545070  .00015686  00000-0  32303-3 0  9990
2 49263  97.4517 209.9919 0007096 345.1266  14.9773 15.45992631200397
TeikyoSat 4
1 49396U 21102B   25134.53280502  .00002308  00000-0  15576-3 0  9997
2 49396  97.4113 173.9004 0011628 217.0588 142.9839 15.07526298192622
Z-Sat
1 49399U 21102E   25134.84775235  .00004380  00000-0  24265-3 0  9993
2 49399  97.3816 177.1429 0018079 187.7900 172.3054 15.14185950193080
KOSEN 1
1 49402U 21102H   25134.86668513  .00007502  00000-0  35083-3 0  9999
2 49402  97.3721 180.3849 0016733 163.4845 196.6938 15.19928642193387
HO-113
1 50466U 21131B   25134.85748869  .00000622  00000-0  20828-3 0  9992
2 50466  98.5090 224.3384 0003835 196.3449 163.7616 14.40782602177745
IRIS-A
1 51044U 22002BN  25134.70535150  .00328997  42528-4  10361-2 0  9997
2 51044  97.3233 214.1439 0007097 231.5961 128.4676 15.91298849185775
Foresail-1
1 52766U 22057AL  25134.36611665  .00199894  00000-0  88684-3 0  9998
2 52766  97.6036 283.3409 0003465 278.2522  81.8354 15.83843712165737
SNUGLITE 2
1 52899U 22065F   25134.36704732  .00001249  00000-0  25213-3 0  9997
2 52899  98.1651 276.6022 0007517 185.9786 174.1328 14.63148366152651
IO-117
1 53106U 22080B   25051.21822557 -.00000003  00000-0  00000+0 0  9995
2 53106  70.1434 106.3440 0008542  48.0089 312.1297  6.42557744 61200
UmKA 1 (RS40S)
1 57172U 23091G   25134.85158917  .00005941  00000-0  32021-3 0  9996
2 57172  97.5593 190.3704 0015887  67.4198 292.8713 15.15063045103589
CubeBel-2 (EU11S)
1 57175U 23091K   25134.88067651  .00009894  00000-0  47737-3 0  9997
2 57175  97.5594 191.3941 0013819  76.3396 283.9376 15.18806451103652
VERONIKA
1 58261U 23174F   25134.78594737  .00119692  00000-0  12609-2 0  9992
2 58261  97.4136 219.5462 0006376 160.5124 199.6380 15.63856980 84643
ENSO
1 58470U 23185J   25134.82372732  .00052398  00000-0  83282-3 0  9995
2 58470  97.3749 209.1696 0008882 170.5717 189.5704 15.53118364 81035
EIRSAT-1
1 58472U 23185L   25134.87523364  .00096987  00000-0  10824-2 0  9994
2 58472  97.3714 210.7242 0007718 175.0870 185.0465 15.62439254 81142
SONATE-2
1 59112U 24043Q   25134.62038107  .00015997  00000-0  47376-3 0  9994
2 59112  97.5107 265.3002 0011319 201.3142 158.7631 15.34895785 66351
MO-122
1 60209U 24125G   25134.57488184  .00015477  00000-0  45271-3 0  9997
2 60209  97.2816 346.4987 0017986 226.7312 133.2432 15.35188990 47960
GRBBeta
1 60237U 24128C   25134.58144305  .00003164  00000-0  24732-3 0  9995
2 60237  61.9898 170.1889 0049847  51.5189 309.0357 15.02391216 46294
Curium One
1 60242U 24128H   25134.52630167  .00005246  00000-0  37569-3 0  9996
2 60242  61.9796 169.0415 0049825  47.1592 313.3669 15.04692100 46319
ROBUSTA-3A
1 60243U 24128J   25134.52111977  .00004910  00000-0  35720-3 0  9994
2 60243  61.9868 169.8022 0048368  44.9076 315.5912 15.04266258 46300
CatSat
1 60246U 24125J   25134.53224021  .00009586  00000-0  32539-3 0  9999
2 60246  97.2609 345.9602 0043104 184.7413 175.3426 15.29801105 46002
HYPERVIEW-1G (RS66S)
1 61772U 24199AP  25134.86080349  .00020230  00000-0  60626-3 0  9991
2 61772  97.3565   3.7879 0011828 286.1439  73.8502 15.34461640 73017
AO-123
1 61781U 24199AY  25134.84671041  .00006744  00000-0  24882-3 0  9992
2 61781  97.3577   2.9202 0014152 291.5371  68.4360 15.28012510 72954
ZIMSAT 2
1 61783U 24199BA  25134.86297295  .00035868  00000-0  92957-3 0  9998
2 61783  97.3546   4.2233 0011686 282.4876  77.5062 15.38875228 76193
HADES-R (SO-124)
1 62690U 25009CK  25133.76398889  .00030945  00000-0  11562-2 0  9999
2 62690  97.4103 214.7125 0004567 170.6491 189.4834 15.27295482 18057
HYDRA-T
1 62692U 25009CM  25134.47406750  .00034976  00000-0  12954-2 0  9991
2 62692  97.4095 215.4414 0004428 165.2010 194.9360 15.27559297 18165
JINJUSat 1B
1 63210U 25052A   25134.26890575  .00011690  00000-0  54448-3 0  9998
2 63210  97.4447  28.7337 0006179  66.4706 293.7178 15.20046690  9257
NUSHSAT 1
1 63211U 25052B   25134.66209170  .00012107  00000-0  56104-3 0  9993
2 63211  97.4436  29.1187 0006316  69.6199 290.5714 15.20214588  9319
TEVEL2-4
1 63213U 25052D   25134.27586037  .00012249  00000-0  57217-3 0  9995
2 63213  97.4353  28.6547 0005605  83.4915 276.6958 15.19938391  9254
TEVEL2-5
1 63214U 25052E   25134.27616847  .00012195  00000-0  56990-3 0  9996
2 63214  97.4354  28.6543 0005650  83.4021 276.7857 15.19924746  9258
TEVEL2-6
1 63215U 25052F   25134.27761380  .00011910  00000-0  55730-3 0  9995
2 63215  97.4355  28.6532 0005707  84.0833 276.1053 15.19884407  9250
TEVEL2-1
1 63217U 25052H   25134.68011531  .00010339  00000-0  48705-3 0  9996
2 63217  97.4326  29.0135 0005906  91.7588 268.4323 15.19687797  9311
TEVEL2-2
1 63218U 25052J   25134.54870104  .00010423  00000-0  49108-3 0  9993
2 63218  97.4331  28.8841 0005977  92.5558 267.6361 15.19681252  9293
TEVEL2-3
1 63219U 25052K   25134.54874617  .00010561  00000-0  49756-3 0  9999
2 63219  97.4331  28.8839 0005961  92.5478 267.6439 15.19678102  9291
TEVEL2-8
1 63237U 25052AD  25134.26432776  .00011816  00000-0  57505-3 0  9999
2 63237  97.4395  28.5490 0010316 103.8787 256.3596 15.18489894  9241
TEVEL2-9
1 63238U 25052AE  25134.26572345  .00012022  00000-0  58581-3 0  9992
2 63238  97.4397  28.5483 0010436 103.9358 256.3037 15.18440783  9248
TEVEL2-7
1 63239U 25052AF  25134.26707705  .00010941  00000-0  53412-3 0  9999
2 63239  97.4394  28.5458 0010400 104.2868 255.9522 15.18402597  9244
HYDRA-W
1 63490U 25052BL  25133.66483180  .00024035  00000-0  10565-2 0  9999
2 63490  97.4350  28.0903 0014727 104.5772 255.7098 15.21794504  9161
HADES-ICM
1 63492U 25052BN  25134.65948452  .00023575  00000-0  10456-2 0  9996
2 63492  97.4353  29.0569 0014919 104.8186 255.4704 15.21490887  9315
